When you browse on this site, cookies collect data to enhance your experience and personalize the content and advertising you see.
Visit our Privacy Policy to learn more. By continuing to use the site, you agree to this use of cookies and data.
EN

Hourly Weather Gogolevka

Today, 23 September, Wednesday

Time Temperature Precipitation Wind Pressure Humidity
00:00 +12°C° 0 mm 2 mps 745 mmHg 88%
01:00 +12°C° 0 mm 2 mps 745 mmHg 89%
02:00 +12°C° 0 mm 2 mps 746 mmHg 88%
03:00 +12°C° 0 mm 2 mps 746 mmHg 89%
04:00 +10°C° 0 mm 2 mps 746 mmHg 90%
05:00 +10°C° 0 mm 2 mps 745 mmHg 91%
06:00 +12°C° 0 mm 2 mps 745 mmHg 87%
07:00 +13°C° 0 mm 2 mps 746 mmHg 84%
08:00 +13°C° 0 mm 3 mps 746 mmHg 81%
09:00 +16°C° 0 mm 3 mps 745 mmHg 76%
10:00 +18°C° 0 mm 3 mps 745 mmHg 72%
11:00 +19°C° 0 mm 3 mps 745 mmHg 68%
12:00 +20°C° 0 mm 4 mps 745 mmHg 64%
13:00 +21°C° 0 mm 4 mps 745 mmHg 60%
14:00 +22°C° 0 mm 4 mps 745 mmHg 57%
15:00 +20°C° 0 mm 4 mps 745 mmHg 61%
16:00 +19°C° 0 mm 3 mps 745 mmHg 66%
17:00 +18°C° 0 mm 3 mps 744 mmHg 70%
18:00 +16°C° 0 mm 3 mps 744 mmHg 72%
19:00 +14°C° 0 mm 3 mps 745 mmHg 73%
20:00 +13°C° 0 mm 3 mps 745 mmHg 74%
21:00 +12°C° 0 mm 3 mps 745 mmHg 73%
22:00 +12°C° 0 mm 3 mps 745 mmHg 72%
23:00 +11°C° 0 mm 3 mps 745 mmHg 71%

Tomorrow, 24 September, Thursday

Time Temperature Precipitation Wind Pressure Humidity
00:00 +11°C° 0 mm 3 mps 745 mmHg 70%
01:00 +11°C° 0 mm 3 mps 745 mmHg 69%
02:00 +10°C° 0 mm 2 mps 745 mmHg 68%
03:00 +10°C° 0 mm 2 mps 745 mmHg 69%
04:00 +10°C° 0 mm 2 mps 745 mmHg 70%
05:00 +9°C° 0 mm 2 mps 745 mmHg 71%
06:00 +10°C° 0 mm 3 mps 745 mmHg 70%
07:00 +11°C° 0 mm 3 mps 745 mmHg 69%
08:00 +12°C° 0 mm 3 mps 745 mmHg 68%
09:00 +14°C° 0 mm 3 mps 745 mmHg 65%
10:00 +17°C° 0 mm 3 mps 745 mmHg 61%
11:00 +18°C° 0 mm 3 mps 745 mmHg 57%
12:00 +19°C° 0 mm 3 mps 745 mmHg 55%
13:00 +20°C° 0 mm 4 mps 745 mmHg 53%
14:00 +21°C° 0 mm 4 mps 745 mmHg 51%
15:00 +20°C° 0 mm 3 mps 745 mmHg 57%
16:00 +18°C° 0 mm 3 mps 745 mmHg 64%
17:00 +17°C° 0 mm 3 mps 745 mmHg 70%
18:00 +16°C° 0 mm 3 mps 745 mmHg 72%
19:00 +14°C° 0 mm 3 mps 745 mmHg 75%
20:00 +13°C° 0 mm 3 mps 745 mmHg 77%
21:00 +12°C° 0 mm 3 mps 745 mmHg 77%
22:00 +12°C° 0 mm 3 mps 745 mmHg 76%
23:00 +11°C° 0 mm 3 mps 745 mmHg 76%

Day after tomorrow, 25 September, Friday

Time Temperature Precipitation Wind Pressure Humidity
00:00 +11°C° 0 mm 3 mps 745 mmHg 75%
01:00 +11°C° 0 mm 3 mps 745 mmHg 75%
02:00 +10°C° 0 mm 3 mps 745 mmHg 75%
03:00 +10°C° 0 mm 3 mps 745 mmHg 75%
04:00 +10°C° 0 mm 3 mps 744 mmHg 74%
05:00 +10°C° 0 mm 3 mps 744 mmHg 74%
06:00 +11°C° 0 mm 3 mps 744 mmHg 72%
07:00 +12°C° 0 mm 3 mps 744 mmHg 70%
08:00 +13°C° 0 mm 4 mps 744 mmHg 67%
09:00 +15°C° 0 mm 4 mps 744 mmHg 64%
10:00 +17°C° 0 mm 4 mps 744 mmHg 61%
11:00 +19°C° 0 mm 4 mps 744 mmHg 59%
12:00 +20°C° 0 mm 4 mps 744 mmHg 57%
13:00 +21°C° 0 mm 5 mps 744 mmHg 56%
14:00 +22°C° 0 mm 5 mps 743 mmHg 55%
15:00 +21°C° 0 mm 5 mps 743 mmHg 61%
16:00 +20°C° 0 mm 4 mps 743 mmHg 66%
17:00 +18°C° 0 mm 4 mps 742 mmHg 72%
18:00 +18°C° 0 mm 4 mps 742 mmHg 73%
19:00 +17°C° 0 mm 4 mps 742 mmHg 73%
20:00 +15°C° 0 mm 4 mps 742 mmHg 74%
21:00 +15°C° 0 mm 4 mps 742 mmHg 72%
22:00 +14°C° 0 mm 4 mps 742 mmHg 69%
23:00 +14°C° 0 mm 5 mps 742 mmHg 67%

26 September, Saturday

Time Temperature Precipitation Wind Pressure Humidity
00:00 +14°C° 0 mm 5 mps 742 mmHg 68%
01:00 +13°C° 0 mm 5 mps 742 mmHg 69%
02:00 +13°C° 0 mm 5 mps 742 mmHg 69%
03:00 +12°C° 0 mm 5 mps 742 mmHg 70%
04:00 +12°C° 0 mm 5 mps 742 mmHg 70%
05:00 +12°C° 0 mm 5 mps 742 mmHg 70%
06:00 +13°C° 0 mm 5 mps 742 mmHg 70%
07:00 +13°C° 0 mm 5 mps 742 mmHg 70%
08:00 +14°C° 0 mm 5 mps 742 mmHg 70%
09:00 +15°C° 0 mm 6 mps 742 mmHg 66%
10:00 +17°C° 0 mm 6 mps 743 mmHg 63%
11:00 +20°C° 0 mm 6 mps 743 mmHg 59%
12:00 +21°C° 0 mm 6 mps 743 mmHg 57%
13:00 +21°C° 0 mm 6 mps 743 mmHg 56%
14:00 +22°C° 0 mm 6 mps 743 mmHg 54%
15:00 +21°C° 0 mm 6 mps 743 mmHg 59%
16:00 +20°C° 0 mm 5 mps 743 mmHg 63%
17:00 +19°C° 0 mm 5 mps 743 mmHg 67%
18:00 +17°C° 0 mm 5 mps 743 mmHg 66%
19:00 +16°C° 0 mm 6 mps 743 mmHg 66%
20:00 +15°C° 0 mm 6 mps 743 mmHg 65%
21:00 +15°C° 0 mm 6 mps 743 mmHg 66%
22:00 +14°C° 0 mm 6 mps 743 mmHg 66%
23:00 +14°C° 0 mm 6 mps 743 mmHg 67%

27 September, Sunday

Time Temperature Precipitation Wind Pressure Humidity
00:00 +14°C° 0 mm 6 mps 743 mmHg 67%
01:00 +13°C° 0 mm 6 mps 743 mmHg 66%
02:00 +13°C° 0 mm 6 mps 743 mmHg 65%
03:00 +13°C° 0 mm 6 mps 743 mmHg 65%
04:00 +13°C° 0 mm 6 mps 743 mmHg 65%
05:00 +13°C° 0 mm 6 mps 743 mmHg 64%
06:00 +13°C° 0 mm 6 mps 743 mmHg 65%
07:00 +14°C° 0 mm 7 mps 743 mmHg 65%
08:00 +14°C° 0 mm 7 mps 743 mmHg 65%
09:00 +16°C° 0 mm 7 mps 743 mmHg 62%
10:00 +17°C° 0 mm 8 mps 743 mmHg 58%
11:00 +20°C° 0 mm 8 mps 743 mmHg 54%
12:00 +20°C° 0 mm 8 mps 743 mmHg 52%
13:00 +20°C° 0 mm 8 mps 743 mmHg 51%
14:00 +20°C° 0 mm 8 mps 743 mmHg 49%
15:00 +18°C° 0 mm 8 mps 743 mmHg 51%
16:00 +17°C° 0 mm 7 mps 743 mmHg 53%
17:00 +16°C° 0 mm 7 mps 743 mmHg 55%
18:00 +15°C° 0 mm 7 mps 743 mmHg 53%
19:00 +15°C° 0 mm 7 mps 743 mmHg 52%
20:00 +15°C° 0 mm 7 mps 743 mmHg 50%
21:00 +15°C° 0 mm 7 mps 743 mmHg 49%
22:00 +15°C° 0 mm 7 mps 742 mmHg 48%
23:00 +15°C° 0 mm 7 mps 742 mmHg 46%

28 September, Monday

Time Temperature Precipitation Wind Pressure Humidity
00:00 +15°C° 0.2 mm 7 mps 742 mmHg 53%
01:00 +14°C° 0.2 mm 7 mps 742 mmHg 60%
02:00 +13°C° 0.2 mm 6 mps 742 mmHg 67%
03:00 +12°C° 0.8 mm 7 mps 742 mmHg 74%
04:00 +11°C° 0.8 mm 7 mps 741 mmHg 82%
05:00 +11°C° 0.8 mm 8 mps 741 mmHg 89%
06:00 +11°C° 0.3 mm 8 mps 742 mmHg 87%
07:00 +11°C° 0.3 mm 7 mps 742 mmHg 84%
08:00 +11°C° 0.3 mm 7 mps 742 mmHg 82%
09:00 +12°C° 0 mm 7 mps 742 mmHg 80%
10:00 +12°C° 0 mm 7 mps 742 mmHg 78%
11:00 +14°C° 0 mm 6 mps 742 mmHg 76%
12:00 +14°C° 0 mm 6 mps 742 mmHg 76%
13:00 +15°C° 0 mm 6 mps 742 mmHg 77%
14:00 +15°C° 0 mm 6 mps 742 mmHg 77%
15:00 +14°C° 0.1 mm 6 mps 742 mmHg 80%
16:00 +14°C° 0.1 mm 6 mps 742 mmHg 82%
17:00 +13°C° 0.1 mm 6 mps 742 mmHg 84%
18:00 +13°C° 0.1 mm 6 mps 742 mmHg 85%
19:00 +13°C° 0.1 mm 6 mps 742 mmHg 86%
20:00 +11°C° 0.1 mm 6 mps 742 mmHg 87%
21:00 +12°C° 0 mm 5 mps 742 mmHg 87%
22:00 +12°C° 0 mm 5 mps 742 mmHg 88%
23:00 +12°C° 0 mm 5 mps 742 mmHg 88%
Show more